| time (UTC) | temp F | wind direction | speed MPH | gust MPH | rain 1hr in | rain 24hr in | rain mn in | humidity % | barometer mb |
| 20260507073353 | 53 | 359 | 0.0 | 0.0 | 0.00 | 0.06 | 0.00 | 88 | 1001.6 |
| 20260507072656 | 53 | 359 | 0.0 | 0.0 | 0.00 | 0.06 | 0.00 | 88 | 1001.6 |
| 20260507071252 | 53 | 68 | 1.0 | 5.0 | 0.00 | 0.06 | 0.00 | 88 | 1001.5 |
| 20260507065150 | 54 | 90 | 1.0 | 4.0 | 0.00 | 0.06 | 0.00 | 88 | 1001.3 |
| 20260507064452 | 54 | 359 | 0.0 | 0.0 | 0.00 | 0.06 | 0.00 | 88 | 1001.2 |
| 20260507063750 | 55 | 90 | 1.0 | 6.0 | 0.00 | 0.06 | 0.00 | 89 | 1001.0 |
| 20260507063051 | 55 | 68 | 1.0 | 5.0 | 0.00 | 0.06 | 0.00 | 89 | 1001.1 |
| 20260507060258 | 56 | 90 | 1.0 | 4.0 | 0.00 | 0.06 | 0.00 | 89 | 1000.7 |
| 20260507055552 | 56 | 113 | 0.0 | 2.0 | 0.00 | 0.06 | 0.00 | 90 | 1000.7 |
| 20260507053459 | 56 | 45 | 0.0 | 2.0 | 0.00 | 0.00 | 0.00 | 90 | 1000.6 |
| 20260507053452 | 56 | 45 | 0.0 | 2.0 | 0.00 | 0.06 | 0.00 | 90 | 1000.6 |
| 20260507052052 | 56 | 68 | 0.0 | 3.0 | 0.00 | 0.06 | 0.00 | 91 | 1000.4 |
| 20260507051355 | 56 | 68 | 0.0 | 4.0 | 0.00 | 0.06 | 0.00 | 91 | 1000.2 |
| 20260507045955 | 56 | 68 | 1.0 | 7.0 | 0.00 | 0.06 | 0.00 | 91 | 999.9 |
| 20260507045253 | 56 | 45 | 1.0 | 5.0 | 0.00 | 0.06 | 0.00 | 91 | 1000.0 |
| 20260507043854 | 55 | 68 | 1.0 | 6.0 | 0.00 | 0.06 | 0.00 | 92 | 999.8 |
| 20260507043154 | 55 | 68 | 2.0 | 8.0 | 0.00 | 0.06 | 0.00 | 92 | 999.7 |
| 20260507041754 | 55 | 68 | 0.0 | 0.0 | 0.00 | 0.06 | 0.00 | 92 | 999.6 |
| 20260507034255 | 54 | 135 | 0.0 | 0.0 | 0.00 | 0.06 | 0.00 | 91 | 999.2 |
| 20260507033555 | 54 | 135 | 0.0 | 0.0 | 0.00 | 0.06 | 0.00 | 91 | 999.0 |
| 20260507031456 | 54 | 135 | 0.0 | 0.0 | 0.00 | 0.06 | 0.00 | 91 | 998.8 |
| 20260507030756 | 54 | 135 | 0.0 | 0.0 | 0.00 | 0.06 | 0.00 | 91 | 998.7 |
| 20260507030112 | 53 | 135 | 0.0 | 0.0 | 0.00 | 0.06 | 0.00 | 91 | 969.8 |
| 20260507030105 | 53 | 135 | 0.0 | 0.0 | 0.00 | 0.06 | 0.00 | 91 | 998.7 |
| 20260507025356 | 54 | 135 | 0.0 | 0.0 | 0.00 | 0.06 | 0.00 | 91 | 998.8 |
| 20260507023956 | 53 | 135 | 0.0 | 0.0 | 0.00 | 0.06 | 0.00 | 91 | 998.8 |
| 20260507023257 | 54 | 135 | 0.0 | 0.0 | 0.00 | 0.06 | 0.00 | 91 | 998.7 |
| 20260507021857 | 54 | 135 | 0.0 | 0.0 | 0.00 | 0.06 | 0.00 | 91 | 998.5 |
| 20260507021157 | 54 | 359 | 0.0 | 0.0 | 0.00 | 0.06 | 0.00 | 91 | 998.6 |
| 20260507015115 | 55 | 113 | 0.0 | 3.0 | 0.00 | 0.06 | 0.00 | 90 | 998.9 |
| 20260507014358 | 55 | 113 | 1.0 | 3.0 | 0.00 | 0.06 | 0.00 | 90 | 998.8 |
| 20260507014103 | 55 | 45 | 1.0 | 5.0 | 0.00 | 0.06 | 0.00 | 90 | 998.9 |
| 20260507013658 | 55 | 45 | 1.0 | 5.0 | 0.00 | 0.06 | 0.00 | 90 | 998.9 |
| 20260507012958 | 55 | 135 | 4.0 | 10.0 | 0.00 | 0.06 | 0.00 | 90 | 998.7 |
| 20260507012258 | 55 | 68 | 0.0 | 4.0 | 0.00 | 0.06 | 0.00 | 90 | 999.0 |
| 20260507011559 | 55 | 359 | 0.0 | 0.0 | 0.02 | 0.06 | 0.00 | 90 | 999.0 |
| 20260507010414 | 55 | 113 | 0.0 | 1.0 | 0.02 | 0.06 | 0.00 | 90 | 999.0 |
| 20260507010159 | 55 | 113 | 0.0 | 1.0 | 0.02 | 0.06 | 0.00 | 90 | 999.0 |
| 20260507005459 | 55 | 359 | 0.0 | 0.0 | 0.02 | 0.06 | 0.00 | 90 | 998.8 |
| 20260507004759 | 55 | 359 | 0.0 | 0.0 | 0.02 | 0.06 | 0.00 | 90 | 998.7 |
| 20260507004059 | 56 | 90 | 1.0 | 7.0 | 0.02 | 0.06 | 0.00 | 90 | 998.6 |
| 20260507003400 | 56 | 135 | 4.0 | 9.0 | 0.02 | 0.06 | 0.00 | 90 | 998.7 |
| 20260507002000 | 56 | 135 | 5.0 | 12.0 | 0.02 | 0.06 | 0.00 | 89 | 998.1 |
| 20260507001311 | 56 | 135 | 5.0 | 10.0 | 0.02 | 0.06 | 0.00 | 88 | 998.3 |
| 20260507000605 | 56 | 135 | 0.0 | 1.0 | 0.04 | 0.04 | 0.00 | 88 | 999.0 |
| 20260506235209 | 56 | 158 | 4.0 | 8.0 | 0.04 | 0.04 | 0.00 | 88 | 998.6 |
| 20260506234501 | 56 | 135 | 4.0 | 8.0 | 0.04 | 0.04 | 0.00 | 87 | 998.3 |
| 20260506233801 | 56 | 135 | 4.0 | 12.0 | 0.04 | 0.04 | 0.00 | 86 | 998.5 |
| 20260506233103 | 56 | 359 | 0.0 | 0.0 | 0.04 | 0.04 | 0.00 | 85 | 998.6 |
| 20260506232401 | 56 | 113 | 4.0 | 10.0 | 0.04 | 0.04 | 0.00 | 83 | 998.5 |
| 20260506231702 | 57 | 68 | 6.0 | 15.0 | 0.04 | 0.04 | 0.00 | 81 | 998.6 |
| 20260506231008 | 58 | 23 | 10.0 | 23.0 | 0.02 | 0.02 | 0.00 | 77 | 998.8 |
| 20260506230302 | 59 | 68 | 4.0 | 10.0 | 0.00 | 0.00 | 0.00 | 74 | 998.8 |
| 20260506225615 | 57 | 68 | 2.0 | 6.0 | 0.00 | 0.00 | 0.00 | 76 | 998.4 |
| 20260506224947 | 56 | 225 | 0.0 | 0.0 | 0.00 | 0.00 | 0.00 | 74 | 998.2 |
| 20260506223509 | 56 | 225 | 0.0 | 0.0 | 0.00 | 0.00 | 0.00 | 75 | 998.3 |
| 20260506222103 | 56 | 225 | 0.0 | 0.0 | 0.00 | 0.00 | 0.00 | 73 | 998.0 |
| 20260506221403 | 57 | 225 | 0.0 | 0.0 | 0.00 | 0.00 | 0.00 | 73 | 998.1 |
| 20260506220703 | 57 | 225 | 0.0 | 0.0 | 0.00 | 0.00 | 0.00 | 73 | 997.8 |
| 20260506220006 | 56 | 225 | 0.0 | 0.0 | 0.00 | 0.00 | 0.00 | 73 | 997.6 |
| 20260506215308 | 56 | 225 | 0.0 | 0.0 | 0.00 | 0.00 | 0.00 | 73 | 997.9 |
| 20260506213904 | 56 | 359 | 0.0 | 0.0 | 0.00 | 0.00 | 0.00 | 72 | 997.8 |
| 20260506213213 | 57 | 225 | 0.0 | 0.0 | 0.00 | 0.00 | 0.00 | 71 | 997.8 |
| 20260506211105 | 57 | 225 | 0.0 | 0.0 | 0.00 | 0.00 | 0.00 | 71 | 997.7 |
| 20260506210405 | 58 | 225 | 0.0 | 0.0 | 0.00 | 0.00 | 0.00 | 71 | 997.8 |
| 20260506205705 | 58 | 225 | 0.0 | 0.0 | 0.00 | 0.00 | 0.00 | 70 | 997.8 |
| 20260506205214 | 58 | 225 | 0.0 | 0.0 | 0.00 | 0.00 | 0.00 | 70 | 997.8 |
| 20260506205005 | 58 | 225 | 0.0 | 0.0 | 0.00 | 0.00 | 0.00 | 70 | 997.8 |
| 20260506204305 | 58 | 225 | 0.0 | 0.0 | 0.00 | 0.00 | 0.00 | 70 | 997.8 |
| 20260506203606 | 58 | 225 | 0.0 | 0.0 | 0.00 | 0.00 | 0.00 | 69 | 998.0 |
| 20260506202939 | 57 | 225 | 0.0 | 0.0 | 0.00 | 0.00 | 0.00 | 68 | 998.2 |
| 20260506202932 | 57 | 225 | 0.0 | 0.0 | 0.00 | 0.00 | 0.00 | 68 | 998.2 |
| 20260506202608 | 57 | 225 | 0.0 | 0.0 | 0.00 | 0.00 | 0.00 | 67 | 998.1 |
| 20260506202208 | 57 | 225 | 0.0 | 0.0 | 0.00 | 0.00 | 0.00 | 67 | 998.1 |
| 20260506200806 | 58 | 225 | 0.0 | 0.0 | 0.00 | 0.00 | 0.00 | 66 | 997.9 |
| 20260506200106 | 58 | 225 | 0.0 | 0.0 | 0.00 | 0.00 | 0.00 | 65 | 998.2 |
| 20260506195409 | 59 | 225 | 0.0 | 0.0 | 0.00 | 0.00 | 0.00 | 65 | 998.1 |
| 20260506194707 | 59 | 225 | 0.0 | 0.0 | 0.00 | 0.00 | 0.00 | 65 | 997.9 |
| 20260506194007 | 60 | 225 | 0.0 | 0.0 | 0.00 | 0.00 | 0.00 | 66 | 997.8 |
| 20260506192607 | 60 | 135 | 0.0 | 0.0 | 0.00 | 0.00 | 0.00 | 64 | 997.9 |
| 20260506191907 | 60 | 135 | 0.0 | 0.0 | 0.00 | 0.00 | 0.00 | 62 | 997.8 |
| 20260506191208 | 61 | 135 | 0.0 | 0.0 | 0.00 | 0.00 | 0.00 | 61 | 997.8 |
| 20260506190528 | 61 | 135 | 0.0 | 0.0 | 0.00 | 0.00 | 0.00 | 59 | 997.7 |
| 20260506185108 | 63 | 135 | 0.0 | 0.0 | 0.00 | 0.00 | 0.00 | 56 | 997.5 |
| 20260506184415 | 64 | 135 | 100.0 | 0.0 | 0.00 | 0.00 | 0.00 | 57 | 997.7 |
| 20260506184408 | 64 | 135 | 0.0 | 0.0 | 0.00 | 0.00 | 0.00 | 57 | 997.7 |
| 20260506183708 | 65 | 135 | 0.0 | 0.0 | 0.00 | 0.00 | 0.00 | 56 | 997.4 |
| 20260506180909 | 68 | 135 | 0.0 | 0.0 | 0.00 | 0.00 | 0.00 | 50 | 997.2 |
| 20260506180602 | 70 | 135 | 0.0 | 0.0 | 0.00 | 0.00 | 0.00 | 49 | 997.3 |
| 20260506180209 | 70 | 135 | 0.0 | 0.0 | 0.00 | 0.00 | 0.00 | 49 | 997.3 |
| 20260506174819 | 73 | 135 | 0.0 | 0.0 | 0.00 | 0.00 | 0.00 | 46 | 997.2 |
| 20260506174810 | 73 | 135 | 0.0 | 0.0 | 0.00 | 0.00 | 0.00 | 46 | 997.2 |
| 20260506174110 | 76 | 158 | 0.0 | 0.0 | 0.00 | 0.00 | 0.00 | 43 | 997.2 |
| 20260506172710 | 79 | 113 | 0.0 | 0.0 | 0.00 | 0.00 | 0.00 | 41 | 997.3 |
| 20260506172010 | 80 | 68 | 0.0 | 0.0 | 0.00 | 0.00 | 0.00 | 40 | 997.2 |
| 20260506171311 | 80 | 68 | 0.0 | 3.0 | 0.00 | 0.00 | 0.00 | 40 | 997.1 |
| 20260506170611 | 81 | 90 | 0.0 | 4.0 | 0.00 | 0.00 | 0.00 | 39 | 997.0 |
| 20260506165911 | 80 | 359 | 0.0 | 0.0 | 0.00 | 0.00 | 0.00 | 40 | 997.2 |
| 20260506164511 | 77 | 68 | 2.0 | 6.0 | 0.00 | 0.00 | 0.00 | 44 | 996.9 |
| 20260506163114 | 77 | 45 | 1.0 | 5.0 | 0.00 | 0.00 | 0.00 | 42 | 996.8 |
| 20260506162530 | 79 | 68 | 2.0 | 6.0 | 0.00 | 0.00 | 0.00 | 40 | 996.8 |
| 20260506162412 | 79 | 68 | 2.0 | 6.0 | 0.00 | 0.00 | 0.00 | 40 | 996.8 |
| 20260506161714 | 83 | 45 | 3.0 | 8.0 | 0.00 | 0.00 | 0.00 | 38 | 997.0 |
| 20260506161019 | 82 | 45 | 4.0 | 9.0 | 0.00 | 0.00 | 0.00 | 38 | 996.7 |
| 20260506154913 | 86 | 113 | 2.0 | 5.0 | 0.00 | 0.00 | 0.00 | 36 | 997.0 |
| 20260506152813 | 83 | 68 | 2.0 | 7.0 | 0.00 | 0.00 | 0.00 | 38 | 997.0 |
| 20260506141120 | 80 | 0 | 9.0 | 14.0 | 0.00 | 0.00 | 0.00 | 41 | 997.1 |
| 20260506132216 | 80 | 23 | 5.0 | 11.0 | 0.00 | 0.00 | 0.00 | 41 | 996.9 |
| 20260506131517 | 80 | 23 | 4.0 | 9.0 | 0.00 | 0.00 | 0.00 | 41 | 997.0 |
| 20260506125417 | 78 | 0 | 5.0 | 9.0 | 0.00 | 0.00 | 0.00 | 44 | 997.0 |
| 20260506121918 | 75 | 45 | 4.0 | 11.0 | 0.00 | 0.00 | 0.00 | 47 | 997.1 |
| 20260506121218 | 74 | 23 | 9.0 | 15.0 | 0.00 | 0.00 | 0.00 | 46 | 997.2 |
| 20260506113719 | 75 | 23 | 9.0 | 15.0 | 0.00 | 0.00 | 0.00 | 45 | 997.0 |
| 20260506113030 | 75 | 0 | 8.0 | 13.0 | 0.00 | 0.00 | 0.00 | 45 | 996.9 |
| 20260506111619 | 77 | 0 | 8.0 | 14.0 | 0.00 | 0.00 | 0.00 | 44 | 996.9 |
| 20260506102725 | 75 | 0 | 13.0 | 19.0 | 0.00 | 0.00 | 0.00 | 45 | 997.1 |
| 20260506095921 | 74 | 0 | 13.0 | 19.0 | 0.00 | 0.00 | 0.00 | 45 | 997.2 |
| 20260506094522 | 75 | 0 | 12.0 | 21.0 | 0.00 | 0.00 | 0.00 | 44 | 997.2 |
| 20260506093124 | 75 | 0 | 10.0 | 17.0 | 0.00 | 0.00 | 0.00 | 46 | 997.2 |
| 20260506092422 | 73 | 0 | 10.0 | 16.0 | 0.00 | 0.00 | 0.00 | 49 | 997.3 |
| 20260506091023 | 73 | 0 | 7.0 | 15.0 | 0.00 | 0.00 | 0.00 | 47 | 997.2 |
| 20260506084225 | 74 | 338 | 11.0 | 17.0 | 0.00 | 0.00 | 0.00 | 43 | 997.2 |
| 20260506083526 | 75 | 0 | 8.0 | 16.0 | 0.00 | 0.00 | 0.00 | 44 | 996.8 |
| 20260506082826 | 75 | 0 | 8.0 | 14.0 | 0.00 | 0.00 | 0.00 | 44 | 997.2 |
| 20260506082126 | 76 | 0 | 1.0 | 9.0 | 0.00 | 0.00 | 0.00 | 47 | 997.1 |